STARLINK AP

Last updated on Sat Jul 15 2023 00:02:05 GMT+0000 (Coordinated Universal Time)

1 57255U 23094AP 23195.75001157 -.01068101 34038-3 -30345-2 0 9995 2 57255 42.9947 276.0434 0024941 199.7102 243.8863 15.91862304 1303

Satellite not in orbit

STARLINK AP